TimeCDT,TemperatureF,Dew PointF,Humidity,Sea Level PressureIn,VisibilityMPH,Wind Direction,Wind SpeedMPH,Gust SpeedMPH,PrecipitationIn,Events,Conditions,WindDirDegrees,DateUTC
12:15 AM,71.6,53.6,53,29.91,10.0,SSE,11.5,16.1,N/A,,Clear,150,2013-04-29 05:15:00
12:35 AM,71.6,53.6,53,29.91,10.0,SE,10.4,-,N/A,,Clear,140,2013-04-29 05:35:00
12:55 AM,69.8,55.4,60,29.91,10.0,SSE,10.4,-,N/A,,Clear,150,2013-04-29 05:55:00
1:15 AM,68.0,55.4,64,29.91,10.0,SSE,8.1,-,N/A,,Clear,150,2013-04-29 06:15:00
1:35 AM,68.0,55.4,64,29.91,10.0,SSE,6.9,-,N/A,,Partly Cloudy,150,2013-04-29 06:35:00
1:55 AM,68.0,55.4,64,29.91,10.0,SSE,6.9,-,N/A,,Partly Cloudy,150,2013-04-29 06:55:00
2:15 AM,68.0,57.2,68,29.91,10.0,SSE,6.9,-,N/A,,Partly Cloudy,150,2013-04-29 07:15:00
2:35 AM,66.2,57.2,73,29.90,10.0,SE,6.9,-,N/A,,Partly Cloudy,140,2013-04-29 07:35:00
2:55 AM,66.2,57.2,73,29.90,10.0,South,5.8,-,N/A,,Clear,170,2013-04-29 07:55:00
3:15 AM,66.2,57.2,73,29.89,10.0,SSE,5.8,-,N/A,,Clear,160,2013-04-29 08:15:00
3:35 AM,64.4,57.2,77,29.89,10.0,Calm,Calm,-,N/A,,Clear,0,2013-04-29 08:35:00
3:55 AM,64.4,57.2,77,29.89,10.0,South,3.5,-,N/A,,Clear,170,2013-04-29 08:55:00
4:15 AM,64.4,57.2,77,29.89,10.0,Calm,Calm,-,N/A,,Clear,0,2013-04-29 09:15:00
4:35 AM,62.6,57.2,82,29.89,10.0,ESE,3.5,-,N/A,,Clear,120,2013-04-29 09:35:00
4:55 AM,62.6,57.2,82,29.89,10.0,SSE,4.6,-,N/A,,Clear,150,2013-04-29 09:55:00
5:15 AM,62.6,57.2,82,29.89,10.0,South,3.5,-,N/A,,Clear,190,2013-04-29 10:15:00
5:55 AM,59.0,57.2,94,29.88,10.0,Calm,Calm,-,N/A,,Clear,0,2013-04-29 10:55:00
6:15 AM,59.0,57.2,94,29.89,10.0,Calm,Calm,-,N/A,,Clear,0,2013-04-29 11:15:00
6:35 AM,57.2,57.2,100,29.89,10.0,East,3.5,-,N/A,,Clear,100,2013-04-29 11:35:00
6:55 AM,55.4,55.4,100,29.90,8.0,ESE,4.6,-,N/A,,Clear,120,2013-04-29 11:55:00
7:15 AM,57.2,55.4,94,29.91,9.0,SSE,5.8,-,N/A,,Clear,150,2013-04-29 12:15:00
7:35 AM,59.0,59.0,100,29.91,10.0,South,4.6,-,N/A,,Clear,170,2013-04-29 12:35:00
7:55 AM,64.4,59.0,83,29.92,10.0,SSE,5.8,-,N/A,,Clear,160,2013-04-29 12:55:00
8:15 AM,66.2,60.8,83,29.92,10.0,SSE,8.1,-,N/A,,Clear,160,2013-04-29 13:15:00
8:35 AM,66.2,60.8,83,29.93,10.0,SSE,9.2,-,N/A,,Clear,160,2013-04-29 13:35:00
8:55 AM,68.0,60.8,78,29.93,10.0,SSE,9.2,-,N/A,,Clear,150,2013-04-29 13:55:00
9:15 AM,68.0,62.6,83,29.93,10.0,South,9.2,-,N/A,,Clear,180,2013-04-29 14:15:00
9:35 AM,71.6,62.6,73,29.92,10.0,South,10.4,-,N/A,,Clear,180,2013-04-29 14:35:00
9:55 AM,73.4,59.0,61,29.92,10.0,SSW,13.8,19.6,N/A,,Clear,200,2013-04-29 14:55:00
10:15 AM,75.2,59.0,57,29.92,10.0,SW,12.7,18.4,N/A,,Clear,220,2013-04-29 15:15:00
10:35 AM,77.0,59.0,54,29.92,10.0,SSW,13.8,-,N/A,,Clear,200,2013-04-29 15:35:00
10:55 AM,77.0,60.8,57,29.92,10.0,South,11.5,17.3,N/A,,Clear,180,2013-04-29 15:55:00
11:15 AM,78.8,59.0,51,29.91,10.0,SSW,12.7,-,N/A,,Clear,210,2013-04-29 16:15:00
11:35 AM,80.6,59.0,48,29.91,10.0,SSW,10.4,16.1,N/A,,Clear,200,2013-04-29 16:35:00
11:55 AM,80.6,59.0,48,29.90,10.0,SSW,8.1,-,N/A,,Clear,200,2013-04-29 16:55:00
12:15 PM,80.6,55.4,42,29.89,10.0,South,9.2,17.3,N/A,,Clear,180,2013-04-29 17:15:00
12:35 PM,82.4,55.4,39,29.89,10.0,South,8.1,16.1,N/A,,Clear,190,2013-04-29 17:35:00
12:55 PM,82.4,55.4,39,29.88,10.0,SSW,13.8,17.3,N/A,,Clear,200,2013-04-29 17:55:00
1:15 PM,84.2,55.4,37,29.88,10.0,SSW,6.9,17.3,N/A,,Partly Cloudy,200,2013-04-29 18:15:00
1:35 PM,84.2,55.4,37,29.87,10.0,SSE,11.5,18.4,N/A,,Scattered Clouds,160,2013-04-29 18:35:00
1:55 PM,84.2,55.4,37,29.86,10.0,SSE,11.5,17.3,N/A,,Clear,160,2013-04-29 18:55:00
2:15 PM,86.0,53.6,33,29.86,10.0,SE,12.7,-,N/A,,Clear,130,2013-04-29 19:15:00
2:35 PM,84.2,50.0,30,29.85,10.0,SSE,13.8,18.4,N/A,,Partly Cloudy,150,2013-04-29 19:35:00
2:55 PM,86.0,48.2,27,29.84,10.0,SE,10.4,-,N/A,,Partly Cloudy,140,2013-04-29 19:55:00
3:15 PM,86.0,48.2,27,29.83,10.0,SSE,9.2,17.3,N/A,,Partly Cloudy,150,2013-04-29 20:15:00
3:35 PM,86.0,50.0,29,29.82,10.0,SSE,12.7,21.9,N/A,,Clear,160,2013-04-29 20:35:00
3:55 PM,86.0,50.0,29,29.81,10.0,SE,13.8,21.9,N/A,,Partly Cloudy,130,2013-04-29 20:55:00
4:15 PM,86.0,48.2,27,29.80,10.0,SSE,9.2,-,N/A,,Partly Cloudy,150,2013-04-29 21:15:00
4:35 PM,86.0,46.4,25,29.78,10.0,SSE,8.1,16.1,N/A,,Clear,150,2013-04-29 21:35:00
4:55 PM,86.0,44.6,23,29.78,10.0,SE,9.2,-,N/A,,Clear,140,2013-04-29 21:55:00
5:15 PM,86.0,46.4,25,29.78,10.0,South,9.2,16.1,N/A,,Clear,170,2013-04-29 22:15:00
5:35 PM,84.2,46.4,27,29.77,10.0,SE,12.7,16.1,N/A,,Clear,130,2013-04-29 22:35:00
5:55 PM,86.0,46.4,25,29.77,10.0,SSW,9.2,-,N/A,,Clear,200,2013-04-29 22:55:00
6:15 PM,86.0,46.4,25,29.76,10.0,SSE,10.4,-,N/A,,Clear,150,2013-04-29 23:15:00
6:35 PM,84.2,46.4,27,29.76,10.0,South,9.2,-,N/A,,Clear,180,2013-04-29 23:35:00
6:55 PM,84.2,46.4,27,29.76,10.0,SE,10.4,-,N/A,,Clear,140,2013-04-29 23:55:00
7:15 PM,84.2,46.4,27,29.76,10.0,SE,6.9,-,N/A,,Clear,140,2013-04-30 00:15:00
7:35 PM,82.4,46.4,28,29.76,10.0,SSE,6.9,-,N/A,,Clear,150,2013-04-30 00:35:00
7:55 PM,80.6,53.6,39,29.77,10.0,SE,18.4,24.2,N/A,,Clear,140,2013-04-30 00:55:00
8:15 PM,77.0,57.2,50,29.78,10.0,SE,16.1,23.0,N/A,,Partly Cloudy,130,2013-04-30 01:15:00
8:35 PM,75.2,53.6,47,29.79,10.0,SE,17.3,23.0,N/A,,Partly Cloudy,130,2013-04-30 01:35:00
8:55 PM,75.2,55.4,50,29.80,10.0,SE,13.8,18.4,N/A,,Scattered Clouds,140,2013-04-30 01:55:00
9:15 PM,75.2,57.2,53,29.81,10.0,SE,13.8,17.3,N/A,,Overcast,130,2013-04-30 02:15:00
9:35 PM,75.2,59.0,57,29.82,10.0,SE,17.3,23.0,N/A,,Overcast,130,2013-04-30 02:35:00
9:55 PM,73.4,59.0,61,29.82,10.0,SE,19.6,27.6,N/A,,Scattered Clouds,140,2013-04-30 02:55:00
10:15 PM,73.4,59.0,61,29.83,10.0,SE,19.6,25.3,N/A,,Clear,140,2013-04-30 03:15:00
10:35 PM,71.6,59.0,64,29.84,10.0,SSE,18.4,23.0,N/A,,Clear,150,2013-04-30 03:35:00
10:55 PM,71.6,59.0,64,29.84,10.0,South,11.5,18.4,N/A,,Clear,170,2013-04-30 03:55:00
11:15 PM,68.0,57.2,68,29.85,10.0,SSE,12.7,23.0,N/A,,Clear,160,2013-04-30 04:15:00
11:35 PM,68.0,57.2,68,29.84,10.0,SSE,11.5,20.7,N/A,,Clear,150,2013-04-30 04:35:00
11:55 PM,66.2,59.0,78,29.84,10.0,SSE,10.4,18.4,N/A,,Clear,150,2013-04-30 04:55:00